GW1000 Weather Reports


Display with metric or nautical units.
time (UTC)temp
F
wind
direction
speed
MPH
gust
MPH
rain 1hr
in
rain 24hr
in
rain mn
in
humidity
%
barometer
mb
20260507061227 64 30 2.0 5.0 0.00 0.00 0.00 62 1014.3
20260507060725 64 18 5.0 8.0 0.00 0.00 0.00 64 1014.3
20260507060222 64 340 4.0 7.0 0.00 0.00 0.00 64 1014.2
20260507055718 64 46 3.0 7.0 0.00 0.00 0.00 64 1014.3
20260507055213 64 336 4.0 7.0 0.00 0.00 0.00 65 1014.3
20260507054709 64 337 3.0 6.0 0.00 0.00 0.00 65 1014.4
20260507054207 64 342 3.0 5.0 0.00 0.00 0.00 66 1014.1
20260507053704 63 57 5.0 8.0 0.00 0.00 0.00 66 1014.3
20260507053202 63 65 4.0 9.0 0.00 0.00 0.00 67 1014.4
20260507052701 63 43 5.0 11.0 0.00 0.00 0.00 67 1014.2
20260507052156 63 70 1.0 7.0 0.00 0.00 0.00 68 1014.1
20260507051654 62 58 6.0 8.0 0.00 0.00 0.00 68 1014.1
20260507051150 63 1 6.0 8.0 0.00 0.00 0.00 68 1014.4
20260507050647 63 23 3.0 7.0 0.00 0.00 0.00 68 1014.2
20260507050144 63 58 2.0 2.0 0.00 0.00 0.00 69 1014.4
20260507045640 62 65 0.0 3.0 0.00 0.00 0.00 71 1014.4
20260507045137 61 91 1.0 2.0 0.00 0.00 0.00 72 1014.3
20260507044635 60 33 1.0 2.0 0.00 0.00 0.00 74 1014.1
20260507044131 59 40 1.0 3.0 0.00 0.00 0.00 75 1014.3
20260507043627 59 40 0.0 1.0 0.00 0.00 0.00 77 1014.0
20260507043124 58 59 0.0 1.0 0.00 0.00 0.00 78 1014.3
20260507042621 57 66 1.0 1.0 0.00 0.00 0.00 79 1014.1
20260507042116 57 52 1.0 2.0 0.00 0.00 0.00 81 1014.3
20260507041613 56 63 1.0 2.0 0.00 0.00 0.00 82 1014.3
20260507041109 55 123 2.0 5.0 0.00 0.00 0.00 83 1014.1
20260507040606 55 34 2.0 2.0 0.00 0.00 0.00 83 1014.3
20260507035558 54 78 0.0 3.0 0.00 0.00 0.00 84 1013.9
20260507035055 54 78 0.0 3.0 0.00 0.00 0.00 84 1014.1
20260507034552 54 69 2.0 2.0 0.00 0.00 0.00 85 1013.9
20260507034050 53 31 0.0 0.0 0.00 0.00 0.00 85 1013.8
20260507033548 53 67 0.0 1.0 0.00 0.00 0.00 85 1014.0
20260507033044 53 72 0.0 1.0 0.00 0.00 0.00 85 1013.9
20260507032541 53 67 1.0 5.0 0.00 0.00 0.00 85 1013.8
20260507032037 53 140 1.0 2.0 0.00 0.00 0.00 85 1013.6
20260507031534 53 63 0.0 3.0 0.00 0.00 0.00 85 1013.7
20260507031031 53 73 0.0 2.0 0.00 0.00 0.00 85 1013.7
20260507030528 53 72 1.0 2.0 0.00 0.00 0.00 86 1013.5
20260507030026 52 74 1.0 1.0 0.00 0.00 0.00 86 1013.5
20260507025522 52 43 0.0 1.0 0.00 0.00 0.00 86 1013.6
20260507025020 52 80 0.0 2.0 0.00 0.00 0.00 86 1013.5
20260507024517 52 67 3.0 3.0 0.00 0.00 0.00 86 1013.3
20260507024014 52 42 0.0 0.0 0.00 0.00 0.00 85 1013.6
20260507023510 52 94 0.0 0.0 0.00 0.00 0.00 86 1013.3
20260507023008 52 73 0.0 1.0 0.00 0.00 0.00 85 1013.4
20260507022504 52 82 1.0 1.0 0.00 0.00 0.00 85 1013.3
20260507021959 52 96 1.0 1.0 0.00 0.00 0.00 85 1013.2
20260507021455 53 56 0.0 1.0 0.00 0.00 0.00 85 1013.3
20260507020953 53 59 0.0 1.0 0.00 0.00 0.00 85 1013.3
20260507020449 53 78 0.0 1.0 0.00 0.00 0.00 85 1013.2
20260507015946 53 68 0.0 1.0 0.00 0.00 0.00 85 1013.1
20260507015445 53 70 0.0 1.0 0.00 0.00 0.00 85 1012.9
20260507014942 53 52 0.0 0.0 0.00 0.00 0.00 85 1013.1
20260507014439 53 52 0.0 1.0 0.00 0.00 0.00 85 1013.1
20260507013935 53 86 0.0 0.0 0.00 0.00 0.00 85 1013.2
20260507013432 53 72 1.0 2.0 0.00 0.00 0.00 85 1013.3
20260507012929 53 74 1.0 2.0 0.00 0.00 0.00 85 1013.3
20260507012426 53 47 0.0 0.0 0.00 0.00 0.00 85 1013.2
20260507011922 53 66 0.0 1.0 0.00 0.00 0.00 85 1013.2
20260507011419 53 62 0.0 1.0 0.00 0.00 0.00 85 1013.3
20260507010913 53 28 0.0 0.0 0.00 0.00 0.00 85 1013.3
20260507010408 53 125 1.0 1.0 0.00 0.00 0.00 85 1013.1
20260507005906 53 345 1.0 1.0 0.00 0.00 0.00 85 1013.2
20260507005403 53 27 0.0 1.0 0.00 0.00 0.00 84 1013.5
20260507004859 53 359 0.0 1.0 0.00 0.00 0.00 84 1013.3
20260507004356 53 1 0.0 2.0 0.00 0.00 0.00 84 1013.3
20260507003853 53 3 1.0 2.0 0.00 0.00 0.00 84 1013.2
20260507003349 53 6 0.0 1.0 0.00 0.00 0.00 84 1013.6
20260507002844 53 67 0.0 1.0 0.00 0.00 0.00 84 1013.2
20260507002340 53 359 1.0 2.0 0.00 0.00 0.00 84 1013.2
20260507001838 53 13 0.0 1.0 0.00 0.00 0.00 84 1013.2
20260507001334 53 69 0.0 3.0 0.00 0.00 0.00 84 1013.5
20260507000831 53 26 0.0 1.0 0.00 0.00 0.00 84 1013.4
20260507000328 53 86 2.0 2.0 0.00 0.00 0.00 84 1013.3
20260506235823 53 59 0.0 0.0 0.00 0.00 0.00 83 1013.3
20260506235320 53 143 0.0 1.0 0.00 0.00 0.00 84 1013.3
20260506234816 53 18 1.0 1.0 0.00 0.00 0.00 83 1013.6
20260506234314 53 38 1.0 2.0 0.00 0.00 0.00 84 1013.6
20260506233811 53 52 0.0 1.0 0.00 0.00 0.00 84 1013.7
20260506233307 53 52 1.0 1.0 0.00 0.00 0.00 84 1013.4
20260506232804 53 333 1.0 1.0 0.00 0.00 0.00 84 1013.5
20260506232259 53 37 0.0 0.0 0.00 0.00 0.00 83 1013.6
20260506231751 53 58 0.0 0.0 0.00 0.00 0.00 84 1013.4
20260506231250 53 0 0.0 1.0 0.00 0.00 0.00 83 1013.6
20260506230746 53 1 0.0 1.0 0.00 0.00 0.00 83 1013.5
20260506230243 53 326 1.0 1.0 0.00 0.00 0.00 83 1013.6
20260506225740 53 42 0.0 1.0 0.00 0.00 0.00 83 1013.4
20260506225237 53 87 0.0 1.0 0.00 0.00 0.00 83 1013.3
20260506224733 53 324 0.0 2.0 0.00 0.00 0.00 83 1013.4
20260506224231 53 14 1.0 1.0 0.00 0.00 0.00 83 1013.7
20260506223727 54 1 0.0 0.0 0.00 0.00 0.00 83 1013.7
20260506223222 54 353 0.0 1.0 0.00 0.00 0.00 83 1013.6
20260506222719 54 2 0.0 1.0 0.00 0.00 0.00 83 1013.6
20260506222214 54 358 0.0 1.0 0.00 0.00 0.00 83 1013.7
20260506221712 54 11 0.0 0.0 0.00 0.00 0.00 83 1013.6
20260506221210 54 337 1.0 1.0 0.00 0.00 0.00 82 1013.7
20260506220707 54 7 1.0 2.0 0.00 0.00 0.00 82 1013.7
20260506220202 54 35 0.0 1.0 0.00 0.00 0.00 82 1013.9
20260506215659 54 69 0.0 0.0 0.00 0.00 0.00 82 1013.9
20260506215154 54 96 0.0 1.0 0.00 0.00 0.00 82 1014.0
20260506214646 54 29 0.0 1.0 0.00 0.00 0.00 82 1014.0
20260506214143 55 21 0.0 1.0 0.00 0.00 0.00 81 1013.9
20260506213642 55 12 0.0 1.0 0.00 0.00 0.00 81 1014.0
20260506213138 55 348 0.0 1.0 0.00 0.00 0.00 81 1014.1
20260506212635 55 48 0.0 2.0 0.00 0.00 0.00 81 1014.1
20260506212130 55 91 2.0 2.0 0.00 0.00 0.00 81 1014.0
20260506211626 55 41 0.0 0.0 0.00 0.00 0.00 81 1014.0
20260506211123 55 28 0.0 1.0 0.00 0.00 0.00 80 1014.0
20260506210620 55 101 0.0 2.0 0.00 0.00 0.00 80 1013.9
20260506210116 56 86 2.0 2.0 0.00 0.00 0.00 80 1014.0
20260506205613 56 38 0.0 1.0 0.00 0.00 0.00 80 1013.9
20260506205108 56 51 1.0 2.0 0.00 0.00 0.00 80 1014.1
20260506204607 56 67 0.0 0.0 0.00 0.00 0.00 80 1014.1
20260506204103 56 80 0.0 1.0 0.00 0.00 0.00 80 1014.2
20260506203601 56 61 0.0 1.0 0.00 0.00 0.00 79 1014.0
20260506203057 56 62 1.0 1.0 0.00 0.00 0.00 79 1014.1
20260506202555 56 69 0.0 2.0 0.00 0.00 0.00 79 1014.2
20260506202051 56 69 0.0 2.0 0.00 0.00 0.00 79 1014.1
20260506201549 56 93 0.0 0.0 0.00 0.00 0.00 79 1014.3
20260506201045 57 94 0.0 0.0 0.00 0.00 0.00 79 1014.2
20260506200541 57 93 0.0 1.0 0.00 0.00 0.00 78 1014.3
20260506200038 57 69 0.0 1.0 0.00 0.00 0.00 78 1014.2
20260506195535 57 41 0.0 1.0 0.00 0.00 0.00 78 1014.5
20260506195031 57 347 1.0 1.0 0.00 0.00 0.00 78 1014.4
20260506194529 57 22 1.0 1.0 0.00 0.00 0.00 77 1014.3
20260506194026 57 56 0.0 0.0 0.00 0.00 0.00 77 1014.3
20260506193523 58 59 1.0 1.0 0.00 0.00 0.00 77 1014.3
20260506193020 57 67 0.0 0.0 0.00 0.00 0.00 77 1014.2
20260506192517 58 99 0.0 1.0 0.00 0.00 0.00 76 1014.4
20260506192013 58 68 0.0 1.0 0.00 0.00 0.00 76 1014.2
20260506191510 58 80 0.0 3.0 0.00 0.00 0.00 76 1014.3
20260506191006 58 92 0.0 2.0 0.00 0.00 0.00 75 1014.2
20260506190503 59 50 0.0 1.0 0.00 0.00 0.00 75 1014.1
20260506185959 59 79 0.0 0.0 0.00 0.00 0.00 74 1014.0
20260506185457 59 84 1.0 1.0 0.00 0.00 0.00 74 1014.2
20260506184953 59 84 1.0 2.0 0.00 0.00 0.00 74 1014.2
20260506184451 59 93 0.0 2.0 0.00 0.00 0.00 74 1014.2
20260506183948 59 112 0.0 0.0 0.00 0.00 0.00 74 1014.0
20260506183444 60 112 0.0 0.0 0.00 0.00 0.00 74 1013.9
20260506182941 60 112 0.0 1.0 0.00 0.00 0.00 73 1013.9
20260506182438 60 112 0.0 0.0 0.00 0.00 0.00 73 1014.1
20260506181936 60 112 0.0 1.0 0.00 0.00 0.00 73 1014.1
20260506181433 60 141 1.0 1.0 0.00 0.00 0.00 73 1014.1
20260506180930 60 171 1.0 2.0 0.00 0.00 0.00 73 1014.1
20260506180426 60 44 0.0 0.0 0.00 0.00 0.00 73 1013.7
20260506175923 60 44 0.0 0.0 0.00 0.00 0.00 72 1013.8
20260506175419 60 38 0.0 1.0 0.00 0.00 0.00 72 1013.6
20260506174916 60 81 0.0 1.0 0.00 0.00 0.00 72 1013.5
20260506174414 60 216 0.0 0.0 0.00 0.00 0.00 72 1013.7
20260506173911 61 217 1.0 1.0 0.00 0.00 0.00 72 1013.5
20260506173408 61 18 0.0 1.0 0.00 0.00 0.00 71 1013.4
20260506172906 61 20 0.0 1.0 0.00 0.00 0.00 71 1013.5
20260506172402 61 26 1.0 1.0 0.00 0.00 0.00 70 1013.4
20260506171859 61 23 1.0 2.0 0.00 0.00 0.00 70 1013.3
20260506171356 62 44 0.0 1.0 0.00 0.00 0.00 70 1013.3
20260506170853 62 17 0.0 1.0 0.00 0.00 0.00 70 1013.3
20260506170349 62 319 3.0 5.0 0.00 0.00 0.00 69 1013.1
20260506165843 62 351 3.0 5.0 0.00 0.00 0.00 69 1013.1
20260506165341 62 4 2.0 5.0 0.00 0.00 0.00 69 1013.1
20260506164836 62 336 2.0 5.0 0.00 0.00 0.00 69 1013.1
20260506164333 62 339 2.0 5.0 0.00 0.00 0.00 68 1012.9
20260506163831 63 347 5.0 7.0 0.00 0.00 0.00 68 1013.2
20260506163325 63 348 3.0 6.0 0.00 0.00 0.00 67 1013.0
20260506162821 63 347 5.0 8.0 0.00 0.00 0.00 67 1012.8
20260506162319 63 349 5.0 8.0 0.00 0.00 0.00 66 1012.8
20260506161817 64 329 6.0 8.0 0.00 0.00 0.00 66 1013.1
20260506161314 64 350 7.0 8.0 0.00 0.00 0.00 65 1013.0
20260506160811 64 265 4.0 9.0 0.00 0.00 0.00 65 1012.9
20260506160307 64 326 7.0 11.0 0.00 0.00 0.00 64 1012.6
20260506155806 64 337 8.0 9.0 0.00 0.00 0.00 63 1012.6
20260506155305 65 358 4.0 10.0 0.00 0.00 0.00 63 1012.5
20260506153410 65 297 5.0 9.0 0.00 0.00 0.00 63 1012.3
20260506152907 66 337 7.0 9.0 0.00 0.00 0.00 62 1012.5
20260506152404 66 350 4.0 8.0 0.00 0.00 0.00 60 1012.3
20260506151903 67 291 7.0 10.0 0.00 0.00 0.00 59 1012.5
20260506151359 67 41 6.0 11.0 0.00 0.00 0.00 59 1012.2
20260506150857 67 272 7.0 10.0 0.00 0.00 0.00 58 1012.4
20260506150353 67 351 7.0 10.0 0.00 0.00 0.00 58 1012.3
20260506145850 67 287 7.0 9.0 0.00 0.00 0.00 56 1012.2
20260506145346 67 351 5.0 9.0 0.00 0.00 0.00 56 1012.4
20260506144844 67 260 8.0 9.0 0.00 0.00 0.00 55 1012.3
20260506144340 68 288 5.0 8.0 0.00 0.00 0.00 54 1012.5
20260506143839 68 358 3.0 8.0 0.00 0.00 0.00 54 1012.3
20260506143335 68 336 2.0 2.0 0.00 0.00 0.00 54 1012.2
20260506142834 68 352 7.0 9.0 0.00 0.00 0.00 53 1012.3
20260506142331 68 280 5.0 9.0 0.00 0.00 0.00 53 1012.3
20260506141829 68 359 4.0 9.0 0.00 0.00 0.00 54 1012.3
20260506141327 68 336 8.0 10.0 0.00 0.00 0.00 54 1012.3
20260506140825 68 1 5.0 8.0 0.00 0.00 0.00 55 1012.4
20260506140321 68 332 6.0 9.0 0.00 0.00 0.00 55 1012.3
20260506135818 67 289 6.0 11.0 0.00 0.00 0.00 56 1012.3
20260506135315 68 348 9.0 10.0 0.00 0.00 0.00 56 1012.5
20260506134811 69 2 6.0 8.0 0.00 0.00 0.00 54 1012.3
20260506134308 68 359 1.0 8.0 0.00 0.00 0.00 56 1012.6
20260506133805 68 319 8.0 13.0 0.00 0.00 0.00 57 1012.7
20260506133302 68 320 9.0 13.0 0.00 0.00 0.00 57 1012.5
20260506132758 67 311 2.0 6.0 0.00 0.00 0.00 58 1012.5
20260506132256 67 286 7.0 10.0 0.00 0.00 0.00 57 1012.3
20260506131754 68 331 9.0 10.0 0.00 0.00 0.00 57 1012.4
20260506131249 67 22 9.0 11.0 0.00 0.00 0.00 58 1012.5
20260506130746 67 347 5.0 7.0 0.00 0.00 0.00 58 1012.6
20260506130243 67 347 4.0 7.0 0.00 0.00 0.00 59 1012.9
20260506125741 66 328 4.0 7.0 0.00 0.00 0.00 59 1012.9
20260506125239 67 325 6.0 8.0 0.00 0.00 0.00 59 1012.8
20260506124737 67 343 7.0 11.0 0.00 0.00 0.00 59 1012.9
20260506124234 67 18 1.0 9.0 0.00 0.00 0.00 59 1012.9
20260506123732 67 334 7.0 10.0 0.00 0.00 0.00 59 1013.1
20260506123230 67 339 7.0 10.0 0.00 0.00 0.00 59 1012.9
20260506122727 67 352 3.0 7.0 0.00 0.00 0.00 59 1013.1
20260506122224 67 323 8.0 9.0 0.00 0.00 0.00 59 1013.3
20260506121722 67 13 4.0 6.0 0.00 0.00 0.00 59 1013.2
20260506121218 67 345 5.0 6.0 0.00 0.00 0.00 59 1013.0
20260506120716 67 40 3.0 7.0 0.00 0.00 0.00 61 1013.3
20260506120214 67 358 8.0 8.0 0.00 0.00 0.00 60 1013.2
20260506115711 67 33 2.0 7.0 0.00 0.00 0.00 61 1013.3
20260506115209 67 339 4.0 7.0 0.00 0.00 0.00 62 1013.3
20260506114707 67 348 6.0 7.0 0.00 0.00 0.00 62 1013.4
20260506114204 67 355 4.0 5.0 0.00 0.00 0.00 62 1013.3
20260506113703 68 2 4.0 6.0 0.00 0.00 0.00 62 1013.3
20260506113200 67 16 3.0 6.0 0.00 0.00 0.00 62 1013.5
20260506112655 67 32 1.0 8.0 0.00 0.00 0.00 63 1013.5
20260506112154 67 359 3.0 9.0 0.00 0.00 0.00 63 1013.4
20260506111651 66 354 4.0 7.0 0.00 0.00 0.00 62 1013.6
20260506111149 66 344 5.0 6.0 0.00 0.00 0.00 62 1013.7
20260506110646 66 337 4.0 8.0 0.00 0.00 0.00 64 1013.5
20260506110143 66 57 2.0 7.0 0.00 0.00 0.00 65 1013.7
20260506105640 66 6 6.0 8.0 0.00 0.00 0.00 64 1013.6
20260506105137 66 11 1.0 7.0 0.00 0.00 0.00 64 1013.4
20260506104634 67 350 7.0 8.0 0.00 0.00 0.00 64 1013.4
20260506104132 66 351 4.0 6.0 0.00 0.00 0.00 64 1013.5
20260506103629 68 342 8.0 9.0 0.00 0.00 0.00 61 1013.6
20260506103126 67 340 2.0 5.0 0.00 0.00 0.00 60 1013.5
20260506102624 66 342 5.0 8.0 0.00 0.00 0.00 61 1013.5
20260506102121 67 340 6.0 8.0 0.00 0.00 0.00 60 1013.7
20260506101618 67 272 4.0 8.0 0.00 0.00 0.00 59 1013.5
20260506101114 67 352 6.0 8.0 0.00 0.00 0.00 59 1013.7
20260506100613 66 321 3.0 7.0 0.00 0.00 0.00 60 1013.8
20260506100110 66 304 3.0 9.0 0.00 0.00 0.00 61 1013.9
20260506095609 65 336 9.0 9.0 0.00 0.00 0.00 62 1013.8
20260506095105 66 305 4.0 5.0 0.00 0.00 0.00 63 1013.7
20260506094603 66 262 6.0 9.0 0.00 0.00 0.00 63 1013.6
20260506094100 66 275 5.0 7.0 0.00 0.00 0.00 62 1013.9
20260506093559 65 319 3.0 6.0 0.00 0.00 0.00 63 1013.9
20260506093056 65 307 6.0 8.0 0.00 0.00 0.00 63 1013.7
20260506092554 65 245 4.0 8.0 0.00 0.00 0.00 63 1013.7
20260506092050 65 327 3.0 6.0 0.00 0.00 0.00 64 1013.8
20260506091549 65 295 4.0 7.0 0.00 0.00 0.00 63 1013.9
20260506091046 65 349 3.0 3.0 0.00 0.00 0.00 64 1013.9
20260506090543 65 281 4.0 7.0 0.00 0.00 0.00 64 1013.5
20260506090039 66 239 7.0 8.0 0.00 0.00 0.00 64 1013.8
20260506085536 66 319 5.0 7.0 0.00 0.00 0.00 63 1013.9
20260506085033 65 332 7.0 8.0 0.00 0.00 0.00 63 1013.7
20260506084530 66 332 8.0 9.0 0.00 0.00 0.00 62 1013.8
20260506084026 66 254 6.0 9.0 0.00 0.00 0.00 62 1013.9
20260506083523 65 352 3.0 6.0 0.00 0.00 0.00 62 1013.9
20260506083021 66 247 5.0 7.0 0.00 0.00 0.00 62 1013.9
20260506082517 66 243 6.0 10.0 0.00 0.00 0.00 61 1013.9
20260506082013 66 339 5.0 14.0 0.00 0.00 0.00 62 1013.7
20260506081511 66 252 4.0 7.0 0.00 0.00 0.00 61 1013.7
20260506081008 66 257 8.0 9.0 0.00 0.00 0.00 61 1013.7
20260506080506 66 300 5.0 8.0 0.00 0.00 0.00 60 1013.8
20260506073449 65 340 4.0 9.0 0.00 0.00 0.00 62 1013.7
20260506072946 66 245 3.0 6.0 0.00 0.00 0.00 63 1013.8
20260506072443 66 274 3.0 5.0 0.00 0.00 0.00 63 1013.8
20260506071942 66 234 4.0 8.0 0.00 0.00 0.00 64 1013.8
20260506071439 66 285 2.0 5.0 0.00 0.00 0.00 64 1013.8
20260506070936 65 283 7.0 9.0 0.00 0.00 0.00 63 1013.7
20260506070433 65 235 4.0 7.0 0.00 0.00 0.00 63 1013.8
20260506062410 65 103 1.0 5.0 0.00 0.00 0.00 65 1013.6
20260506061906 65 240 8.0 9.0 0.00 0.00 0.00 65 1013.6
20260506061403 64 196 3.0 7.0 0.00 0.00 0.00 65 1013.5